(314123) = 2005 EZ151

Discovered at Kitt Peak on 2005-03-10 by Spacewatch.

Orbit

Orbit type: Main Belt

Note: WebGL enabled browser required.

epoch2024-03-31.0
epoch JD2460400.5
perihelion date2024-02-15.71154
perihelion JD2460356.21154
argument of perihelion (°)180.82130
ascending node (°)30.26471
inclination (°)7.12641
eccentricity0.1109267
perihelion distance (AU)2.1438101
Tisserand w.r.t. Jupiter3.5
ΔV w.r.t. Earth (km/sec)9.4
semimajor axis (AU)2.4112862
mean anomaly (°)11.65792
mean daily motion (°/day)0.26322720
aphelion distance (AU)2.679
period (years)3.74
P-vector [x]-0.85644903
P-vector [y]-0.47292307
P-vector [z]-0.20697542
Q-vector [x]0.51243113
Q-vector [y]-0.73026166
Q-vector [z]-0.45180997
absolute magnitude17.51
phase slope0.15
uncertainty0
referenceMPEC 2024-F50
observations used214
oppositions12
arc length (days)10403
first opposition used1995
last opposition used2024
residual rms (arc-secs)0.71
perturbers coarse indicatorM-v
perturbers precise indicator003Ek
first observation date used1995-09-25.0
last observation date used2024-03-19.0
computer nameMPCLINUX
JD of orbit computation2456966.717079
perihelion JD uncertainty (days)1.3550E-04
argument of perihelion uncertainty (°)4.7310E-05
ascending node uncertainty (°)3.8827E-05
inclination uncertainty (°)8.0099E-06
eccentricity uncertainty 1.1903E-07
perihelion distance uncertainty (AU)3.0131E-07
Minimum Orbit Intersection Distances (in AU)
for orbit epoch: 2460400.5, reference: E2024-F50
Mercury1.69915
Venus1.42247
Earth1.13825
Mars0.52227
Jupiter2.27841
Saturn6.4765
Uranus16.2082
Neptune27.1459

Observations

222 total observations over interval: 1995 09 25.31408 – 2024 03 19.631939
These data are available for download (format description).

Date (UT) J2000 RA J2000 Dec Magn Location Ref
1995 09 25.31408 00 49 39.82 +00 33 22.0 22.4 V 691 – Steward Observatory, Kitt Peak-Spacewatch MPS 405937
1995 09 25.33495 00 49 38.57 +00 33 17.5 21.7 V 691 – Steward Observatory, Kitt Peak-Spacewatch MPS 405937
1995 09 25.35582 00 49 37.37 +00 33 12.6 22.5 V 691 – Steward Observatory, Kitt Peak-Spacewatch MPS 405937
2005 03 10.48647 13 22 16.50 -03 19 49.0 20.4 V 691 – Steward Observatory, Kitt Peak-Spacewatch MPS 129272
2005 03 10.50697 13 22 15.78 -03 19 47.9 20.5 V 691 – Steward Observatory, Kitt Peak-Spacewatch MPS 129272
2005 03 10.52725 13 22 15.08 -03 19 46.8 20.5 V 691 – Steward Observatory, Kitt Peak-Spacewatch MPS 129272
2005 03 11.40701 13 21 45.66 -03 19 01.1 20.2 V 691 – Steward Observatory, Kitt Peak-Spacewatch MPS 129272
2005 03 11.43227 13 21 44.72 -03 18 59.8 20.3 V 691 – Steward Observatory, Kitt Peak-Spacewatch MPS 129272
2005 03 11.45766 13 21 43.77 -03 18 58.3 20.3 V 691 – Steward Observatory, Kitt Peak-Spacewatch MPS 129272
2005 04 11.27370 12 54 21.35 -02 29 58.3 18.7 R G96 – Mt. Lemmon Survey MPS 135361
2005 04 11.27897 12 54 21.00 -02 29 57.7 19.2 R G96 – Mt. Lemmon Survey MPS 135361
2005 04 11.28423 12 54 20.67 -02 29 57.3 19.0 R G96 – Mt. Lemmon Survey MPS 135361
2005 04 11.28954 12 54 20.35 -02 29 56.8 18.9 R G96 – Mt. Lemmon Survey MPS 135361
2005 05 03.15641 12 36 22.96 -02 27 55.1 20.8 V 691 – Steward Observatory, Kitt Peak-Spacewatch MPS 135361
2005 05 03.17206 12 36 22.39 -02 27 56.1 20.9 V 691 – Steward Observatory, Kitt Peak-Spacewatch MPS 135361
2005 05 03.18757 12 36 21.82 -02 27 57.9 20.6 V 691 – Steward Observatory, Kitt Peak-Spacewatch MPS 135361
2005 05 13.14502 12 32 18.82 -02 49 57.2 20.4 V 691 – Steward Observatory, Kitt Peak-Spacewatch MPS 135361
2005 05 13.16043 12 32 18.55 -02 50 00.2 20.8 V 691 – Steward Observatory, Kitt Peak-Spacewatch MPS 135361
2005 05 13.18020 12 32 18.20 -02 50 03.9 20.6 V 691 – Steward Observatory, Kitt Peak-Spacewatch MPS 135361
2005 05 13.25640 12 32 16.86 -02 50 17.5 20.1 R G96 – Mt. Lemmon Survey MPS 135361
2005 05 13.26651 12 32 16.67 -02 50 19.2 20.0 R G96 – Mt. Lemmon Survey MPS 135361
2005 05 13.27660 12 32 16.51 -02 50 21.1 20.0 R G96 – Mt. Lemmon Survey MPS 135361
2005 05 13.28670 12 32 16.37 -02 50 23.3 20.1 R G96 – Mt. Lemmon Survey MPS 135361
2010 10 09.25987 00 41 58.56 +00 36 24.4 20.9 V G96 – Mt. Lemmon Survey MPS 362968
2010 10 09.26677 00 41 58.12 +00 36 23.3 20.8 V G96 – Mt. Lemmon Survey MPS 362968
2010 10 09.27360 00 41 57.73 +00 36 21.9 20.7 V G96 – Mt. Lemmon Survey MPS 362968
2010 10 09.28051 00 41 57.30 +00 36 20.5 20.8 V G96 – Mt. Lemmon Survey MPS 362968
2010 11 08.17544 00 19 06.09 -00 16 08.9 20.1 V G96 – Mt. Lemmon Survey MPS 362968
2010 11 08.18317 00 19 05.88 -00 16 08.1 21.6 V G96 – Mt. Lemmon Survey MPS 362968
2010 11 08.19086 00 19 05.70 -00 16 07.6 20.6 V G96 – Mt. Lemmon Survey MPS 362968
2010 11 08.19860 00 19 05.48 -00 16 07.4 20.9 V G96 – Mt. Lemmon Survey MPS 362968
2011 12 29.44863 08 30 39.63 +30 40 34.4 20.8 V G96 – Mt. Lemmon Survey MPS 404651
2011 12 29.45554 08 30 39.24 +30 40 36.5 20.4 V G96 – Mt. Lemmon Survey MPS 404651
2011 12 29.46243 08 30 38.91 +30 40 38.9 20.7 V G96 – Mt. Lemmon Survey MPS 404651
2011 12 29.46936 08 30 38.62 +30 40 41.5 20.7 V G96 – Mt. Lemmon Survey MPS 404651
2012 01 28.45916 07 58 28.543 +32 50 44.44 20.7 w F51 – Pan-STARRS 1, Haleakala MPS 410148
2012 01 28.47324 07 58 27.527 +32 50 45.80 20.8 w F51 – Pan-STARRS 1, Haleakala MPS 410148
2012 01 28.48718 07 58 26.523 +32 50 47.40 20.7 w F51 – Pan-STARRS 1, Haleakala MPS 410148
2012 01 28.50112 07 58 25.527 +32 50 48.83 20.7 w F51 – Pan-STARRS 1, Haleakala MPS 410148
2014 10 21.38720 02 22 42.02 +15 01 29.8 20.5 V G96 – Mt. Lemmon Survey MPS 542034
2014 10 21.41019 02 22 40.57 +15 01 26.8 20.5 V G96 – Mt. Lemmon Survey MPS 542034
2014 10 21.41871 02 22 40.09 +15 01 25.5 20.8 V G96 – Mt. Lemmon Survey MPS 542034
2014 10 24.17615 02 19 50.64 +14 54 48.3 20.6 V 691 – Steward Observatory, Kitt Peak-Spacewatch MPS 542034
2014 10 24.19645 02 19 49.38 +14 54 45.6 20.6 V 691 – Steward Observatory, Kitt Peak-Spacewatch MPS 542034
2014 10 24.21675 02 19 48.05 +14 54 42.7 20.7 V 691 – Steward Observatory, Kitt Peak-Spacewatch MPS 542034
2015 12 21.51811 10 57 19.77 +16 18 25.1 21.6 V G96 – Mt. Lemmon Survey MPS 663835
2015 12 21.52324 10 57 19.94 +16 18 24.3 21.4 V G96 – Mt. Lemmon Survey MPS 663835
2015 12 21.52835 10 57 20.20 +16 18 24.6 20.9 V G96 – Mt. Lemmon Survey MPS 663835
2015 12 21.53345 10 57 20.35 +16 18 24.2 21.4 V G96 – Mt. Lemmon Survey MPS 663835
2016 02 05.39229 10 58 18.510 +18 08 21.17 20.3 w F51 – Pan-STARRS 1, Haleakala MPS 682059
2016 02 05.40528 10 58 17.942 +18 08 25.22 20.3 w F51 – Pan-STARRS 1, Haleakala MPS 682059
2016 02 05.41826 10 58 17.369 +18 08 29.31 20.3 w F51 – Pan-STARRS 1, Haleakala MPS 682059
2016 02 05.43135 10 58 16.794 +18 08 33.37 20.4 w F51 – Pan-STARRS 1, Haleakala MPS 682059
2016 02 06.56754 10 57 27.882 +18 14 19.42 20.4 w F51 – Pan-STARRS 1, Haleakala MPS 682059
2016 02 06.58024 10 57 27.297 +18 14 23.31 20.3 w F51 – Pan-STARRS 1, Haleakala MPS 682059
2016 02 06.59300 10 57 26.709 +18 14 27.14 20.2 w F51 – Pan-STARRS 1, Haleakala MPS 682059
2016 02 06.60580 10 57 26.120 +18 14 31.00 20.2 w F51 – Pan-STARRS 1, Haleakala MPS 682059
2016 02 10.40476 10 54 28.64 +18 33 54.7 20.1 V 703 – Catalina Sky Survey MPS 689702
2016 02 11.20622 10 53 48.64 +18 37 58.3 20.3 r G45 – Space Surveillance Telescope, Atom Site MPS 685887
2016 02 11.21117 10 53 48.37 +18 37 59.9 20.3 r G45 – Space Surveillance Telescope, Atom Site MPS 685887
2016 02 11.21562 10 53 48.15 +18 38 01.3 20.5 r G45 – Space Surveillance Telescope, Atom Site MPS 685887
2016 02 11.22108 10 53 47.87 +18 38 03.1 20.3 r G45 – Space Surveillance Telescope, Atom Site MPS 685887
2016 02 14.20744 10 51 10.05 +18 53 06.4 20.6 r G45 – Space Surveillance Telescope, Atom Site MPS 685887
2016 02 14.20818 10 51 10.04 +18 53 05.9 20.7 r G45 – Space Surveillance Telescope, Atom Site MPS 685887
2016 02 14.21283 10 51 09.73 +18 53 08.3 20.9 r G45 – Space Surveillance Telescope, Atom Site MPS 685887
2016 02 14.21754 10 51 09.49 +18 53 09.5 20.6 r G45 – Space Surveillance Telescope, Atom Site MPS 685887
2016 02 14.21829 10 51 09.44 +18 53 09.2 20.5 r G45 – Space Surveillance Telescope, Atom Site MPS 685887
2016 02 14.22243 10 51 09.25 +18 53 10.8 20.2 r G45 – Space Surveillance Telescope, Atom Site MPS 685887
2016 02 14.22317 10 51 09.16 +18 53 11.3 19.7 r G45 – Space Surveillance Telescope, Atom Site MPS 685887
2016 02 14.22788 10 51 08.90 +18 53 12.5 20.9 r G45 – Space Surveillance Telescope, Atom Site MPS 685887
2016 02 17.20436 10 48 21.01 +19 07 44.4 20.2 r G45 – Space Surveillance Telescope, Atom Site MPS 685887
2016 02 17.20443 10 48 21.03 +19 07 44.2 20.5 r G45 – Space Surveillance Telescope, Atom Site MPS 685887
2016 02 17.20982 10 48 20.69 +19 07 46.4 20.5 r G45 – Space Surveillance Telescope, Atom Site MPS 685887
2016 02 17.21467 10 48 20.39 +19 07 47.2 20.7 r G45 – Space Surveillance Telescope, Atom Site MPS 685887
2016 02 17.21952 10 48 20.08 +19 07 49.2 20.2 r G45 – Space Surveillance Telescope, Atom Site MPS 685887
2016 02 17.22400 10 48 19.86 +19 07 49.5 20.6 r G45 – Space Surveillance Telescope, Atom Site MPS 685887
2016 02 26.43416 10 38 55.19 +19 47 13.1 19.8 V G96 – Mt. Lemmon Survey MPS 686615
2016 02 26.43833 10 38 54.91 +19 47 14.0 19.9 V G96 – Mt. Lemmon Survey MPS 686615
2016 02 26.44250 10 38 54.63 +19 47 14.5 20.0 V G96 – Mt. Lemmon Survey MPS 686615
2016 02 26.44667 10 38 54.36 +19 47 15.8 20.1 V G96 – Mt. Lemmon Survey MPS 686615
2016 03 02.40246 10 33 40.31 +20 03 15.6 20.2 r G45 – Space Surveillance Telescope, Atom Site MPS 689702
2016 03 02.40825 10 33 39.92 +20 03 16.2 20.8 r G45 – Space Surveillance Telescope, Atom Site MPS 689702
2016 03 02.41247 10 33 39.68 +20 03 17.2 20.5 r G45 – Space Surveillance Telescope, Atom Site MPS 689702
2016 03 02.41826 10 33 39.31 +20 03 19.1 20.4 r G45 – Space Surveillance Telescope, Atom Site MPS 689702
2016 03 11.18381 10 24 48.70 +20 19 40.7 20.3 V 703 – Catalina Sky Survey MPS 692253
2016 03 11.19095 10 24 48.38 +20 19 40.2 20.0 V 703 – Catalina Sky Survey MPS 692253
